{"data":{"norad_id":39360,"intl_designator":"2013-058A","name":"FM-6","alt_names":[],"object_type":"PAYLOAD","status":"ACTIVE","operator":null,"country":"US","launch_date":"2013-10-25","launch_site_code":"TYMSC","launch_vehicle":null,"mission":null,"orbit_class":"UNKNOWN","rcs_meters":11.3214,"size_class":null,"mass_kg":null,"dimensions":null,"purposes":["comms"],"wikipedia_slug":null,"has_3d_model":false,"image_url":null,"decayed_at":null,"tle_current":{"epoch":"2026-09-19T05:14:50.621280Z","epoch_age_seconds":128783,"freshness":"FRESH","line1":"1 39360U 13058A   26262.21864145 -.00000020  00000+0  00000+0 0  9998","line2":"2 39360   0.0166  37.9410 0001475 227.2047  55.3493  1.00272813 47016","mean_motion":1.00272813,"eccentricity":0.0001475,"inclination_deg":0.0166,"raan_deg":37.941,"arg_perigee_deg":227.2047,"mean_anomaly_deg":55.3493,"bstar":0,"rev_number":4701,"period_min":1436.0821811192,"perigee_km":35780.087522478,"apogee_km":35792.526033393,"semimajor_km":42164.443777935,"source":"CELESTRAK","updated_at":"2026-09-20T09:00:35.521085Z"}}}